sat.trackr.live / text

‹ back to catalog

GSAT-9

NORAD 42695 · 2017-024A

PAYLOAD ACTIVE UNKNOWN

§ Identity

Operator
Country
IND
Launch date
2017-05-05
Launch site
SRILR
Launch vehicle
Mass (kg)
RCS (m²)

Purposes: comms

External: N2YO · Heavens-Above · Gunter

§ Orbital elements

Epoch: 2026-09-20T00:16:39.283392Z

Period
1,436.04 min
Inclination
0.0379°
Eccentricity
0.0002734
Mean motion
1.00275842 rev/d
Perigee alt
35,773.9 km
Apogee alt
35,797.0 km
Semi-major
42,163.6 km
B*
0.0000e+0
RAAN
99.8620°
Arg perigee
74.2518°
Mean anomaly
286.2627°
Rev number
3,425

§ Raw data

GSAT-91 42695U 17024A   26263.01156578 -.00000291  00000+0  00000+0 0  99932 42695   0.0379  99.8620 0002734  74.2518 286.2627  1.00275842 34250

JSON: /api/v1/satellites/42695 · /tle

For live sub-satellite position, see the globe view (requires WebGL).

§ Visibility from observer

Set your observer location to see the next 7 days of passes ≥ 10°. The values pass through the URL so the page stays shareable.

No JS? Fill the form by hand. The geolocation button needs JavaScript.